Meteo pe oră la Dziupla

Astăzi, 5 Martie, Vineri

Timp Temperatura Precipitaţii Vânt Presiune Umiditate
00:00 -3°C° 0 mm 2 m/s 746 mmHg 86%
01:00 -1°C° 0 mm 1 m/s 747 mmHg 86%
02:00 -1°C° 0 mm 1 m/s 747 mmHg 84%
03:00 -1°C° 0 mm 1 m/s 747 mmHg 83%
04:00 -1°C° 0 mm 1 m/s 747 mmHg 82%
05:00 -1°C° 0 mm 1 m/s 747 mmHg 81%
06:00 -3°C° 0 mm 2 m/s 748 mmHg 81%
07:00 -3°C° 0 mm 2 m/s 748 mmHg 80%
08:00 -2°C° 0 mm 2 m/s 748 mmHg 71%
09:00 0°C° 0 mm 3 m/s 749 mmHg 61%
10:00 0°C° 0 mm 4 m/s 749 mmHg 52%
11:00 0°C° 0.1 mm 4 m/s 750 mmHg 50%
12:00 +1°C° 0.1 mm 4 m/s 750 mmHg 49%
13:00 +1°C° 0.1 mm 5 m/s 750 mmHg 47%
14:00 0°C° 0.1 mm 5 m/s 750 mmHg 50%
15:00 0°C° 0.1 mm 5 m/s 751 mmHg 54%
16:00 0°C° 0.1 mm 5 m/s 751 mmHg 57%
17:00 -2°C° 0 mm 4 m/s 751 mmHg 64%
18:00 -2°C° 0 mm 3 m/s 752 mmHg 70%
19:00 -3°C° 0 mm 2 m/s 752 mmHg 76%
20:00 -1°C° 0 mm 1 m/s 752 mmHg 75%
21:00 -1°C° 0 mm 1 m/s 753 mmHg 75%
22:00 -1°C° 0 mm 1 m/s 753 mmHg 74%
23:00 -3°C° 0 mm 2 m/s 754 mmHg 73%

Mâine, 6 Martie, Sâmbătă

Timp Temperatura Precipitaţii Vânt Presiune Umiditate
00:00 -3°C° 0 mm 2 m/s 754 mmHg 72%
01:00 -3°C° 0 mm 2 m/s 754 mmHg 71%
02:00 -3°C° 0 mm 2 m/s 754 mmHg 72%
03:00 -3°C° 0 mm 2 m/s 754 mmHg 72%
04:00 -3°C° 0 mm 2 m/s 754 mmHg 73%
05:00 -3°C° 0 mm 2 m/s 754 mmHg 75%
06:00 -3°C° 0 mm 2 m/s 754 mmHg 77%
07:00 -4°C° 0 mm 3 m/s 754 mmHg 79%
08:00 -2°C° 0 mm 3 m/s 754 mmHg 70%
09:00 -1°C° 0 mm 3 m/s 754 mmHg 61%
10:00 0°C° 0 mm 4 m/s 754 mmHg 52%
11:00 0°C° 0 mm 4 m/s 754 mmHg 52%
12:00 +1°C° 0 mm 5 m/s 753 mmHg 52%
13:00 +2°C° 0 mm 6 m/s 753 mmHg 52%
14:00 +1°C° 0 mm 6 m/s 753 mmHg 65%
15:00 -1°C° 0 mm 6 m/s 752 mmHg 77%
16:00 -2°C° 0 mm 6 m/s 751 mmHg 90%
17:00 -2°C° 0.1 mm 6 m/s 751 mmHg 89%
18:00 -2°C° 0.1 mm 6 m/s 751 mmHg 88%
19:00 -2°C° 0.1 mm 6 m/s 750 mmHg 88%
20:00 -2°C° 0 mm 6 m/s 750 mmHg 85%
21:00 -2°C° 0 mm 6 m/s 750 mmHg 81%
22:00 -2°C° 0 mm 7 m/s 750 mmHg 78%
23:00 -2°C° 0 mm 7 m/s 750 mmHg 80%

Poimâine, 7 Martie, Duminică

Timp Temperatura Precipitaţii Vânt Presiune Umiditate
00:00 -2°C° 0 mm 7 m/s 749 mmHg 82%
01:00 -3°C° 0 mm 7 m/s 749 mmHg 84%
02:00 -3°C° 0 mm 7 m/s 748 mmHg 84%
03:00 -3°C° 0 mm 7 m/s 748 mmHg 85%
04:00 -3°C° 0 mm 7 m/s 747 mmHg 85%
05:00 -3°C° 0 mm 7 m/s 747 mmHg 84%
06:00 -3°C° 0 mm 7 m/s 747 mmHg 83%
07:00 -3°C° 0 mm 7 m/s 747 mmHg 83%
08:00 -3°C° 0.1 mm 7 m/s 747 mmHg 86%
09:00 -3°C° 0.1 mm 7 m/s 746 mmHg 90%
10:00 -3°C° 0.1 mm 7 m/s 746 mmHg 94%
11:00 -2°C° 0.1 mm 7 m/s 746 mmHg 93%
12:00 -2°C° 0.1 mm 7 m/s 746 mmHg 92%
13:00 -2°C° 0.1 mm 7 m/s 746 mmHg 92%
14:00 -2°C° 0.1 mm 7 m/s 745 mmHg 93%
15:00 -2°C° 0.1 mm 7 m/s 745 mmHg 94%
16:00 -2°C° 0.1 mm 7 m/s 744 mmHg 94%
17:00 -2°C° 0.3 mm 6 m/s 744 mmHg 95%
18:00 -2°C° 0.3 mm 6 m/s 744 mmHg 95%
19:00 -2°C° 0.3 mm 6 m/s 744 mmHg 95%
20:00 -2°C° 0.8 mm 6 m/s 744 mmHg 95%
21:00 -1°C° 0.8 mm 5 m/s 744 mmHg 96%
22:00 -2°C° 0.8 mm 5 m/s 744 mmHg 96%
23:00 -2°C° 0.1 mm 4 m/s 744 mmHg 94%

8 Martie, Luni

Timp Temperatura Precipitaţii Vânt Presiune Umiditate
00:00 -2°C° 0.1 mm 3 m/s 744 mmHg 91%
01:00 -3°C° 0.1 mm 2 m/s 744 mmHg 89%
02:00 -4°C° 0 mm 2 m/s 744 mmHg 88%
03:00 -4°C° 0 mm 2 m/s 744 mmHg 86%
04:00 -4°C° 0 mm 2 m/s 744 mmHg 85%
05:00 -4°C° 0 mm 2 m/s 745 mmHg 81%
06:00 -4°C° 0 mm 2 m/s 745 mmHg 77%
07:00 -4°C° 0 mm 2 m/s 746 mmHg 74%
08:00 -4°C° 0 mm 3 m/s 747 mmHg 69%
09:00 -1°C° 0 mm 3 m/s 747 mmHg 64%
10:00 -1°C° 0 mm 4 m/s 748 mmHg 59%
11:00 -1°C° 0.1 mm 4 m/s 748 mmHg 60%
12:00 -1°C° 0.1 mm 4 m/s 749 mmHg 61%
13:00 0°C° 0.1 mm 4 m/s 749 mmHg 61%
14:00 -1°C° 0 mm 4 m/s 749 mmHg 62%
15:00 -1°C° 0 mm 4 m/s 749 mmHg 63%
16:00 -2°C° 0 mm 4 m/s 750 mmHg 64%
17:00 -2°C° 0 mm 3 m/s 750 mmHg 70%
18:00 -3°C° 0 mm 2 m/s 750 mmHg 76%
19:00 -4°C° 0 mm 2 m/s 751 mmHg 82%
20:00 -4°C° 0 mm 2 m/s 751 mmHg 81%
21:00 -2°C° 0 mm 1 m/s 751 mmHg 80%
22:00 -2°C° 0 mm 1 m/s 751 mmHg 80%
23:00 -2°C° 0 mm 1 m/s 752 mmHg 79%

9 Martie, Marţi

Timp Temperatura Precipitaţii Vânt Presiune Umiditate
00:00 -2°C° 0 mm 1 m/s 752 mmHg 78%
01:00 -2°C° 0 mm 1 m/s 752 mmHg 77%
02:00 -2°C° 0 mm 1 m/s 752 mmHg 76%
03:00 -3°C° 0 mm 1 m/s 752 mmHg 76%
04:00 -3°C° 0 mm 1 m/s 752 mmHg 76%
05:00 -2°C° 0 mm 1 m/s 752 mmHg 75%
06:00 -2°C° 0 mm 1 m/s 752 mmHg 74%
07:00 -2°C° 0 mm 1 m/s 752 mmHg 73%
08:00 -1°C° 0 mm 1 m/s 752 mmHg 68%
09:00 -3°C° 0 mm 2 m/s 753 mmHg 63%
10:00 -2°C° 0 mm 2 m/s 753 mmHg 58%
11:00 -1°C° 0 mm 2 m/s 753 mmHg 55%
12:00 -1°C° 0 mm 2 m/s 753 mmHg 52%
13:00 +1°C° 0 mm 2 m/s 753 mmHg 49%
14:00 +1°C° 0 mm 2 m/s 753 mmHg 50%
15:00 +1°C° 0 mm 2 m/s 753 mmHg 50%
16:00 +1°C° 0 mm 2 m/s 753 mmHg 51%
17:00 -1°C° 0 mm 2 m/s 753 mmHg 57%
18:00 -2°C° 0 mm 2 m/s 753 mmHg 63%
19:00 -4°C° 0 mm 2 m/s 753 mmHg 69%
20:00 -5°C° 0 mm 3 m/s 753 mmHg 69%
21:00 -5°C° 0 mm 3 m/s 753 mmHg 70%
22:00 -5°C° 0 mm 3 m/s 753 mmHg 70%
23:00 -5°C° 0 mm 3 m/s 753 mmHg 68%

10 Martie, Miercuri

Timp Temperatura Precipitaţii Vânt Presiune Umiditate
00:00 -5°C° 0 mm 3 m/s 753 mmHg 67%
01:00 -5°C° 0 mm 3 m/s 753 mmHg 65%
02:00 -5°C° 0 mm 3 m/s 753 mmHg 64%
03:00 -5°C° 0 mm 4 m/s 753 mmHg 62%
04:00 -5°C° 0 mm 4 m/s 752 mmHg 60%
05:00 -5°C° 0 mm 4 m/s 752 mmHg 59%
06:00 -5°C° 0 mm 4 m/s 752 mmHg 57%
07:00 -5°C° 0 mm 4 m/s 752 mmHg 55%
08:00 -5°C° 0 mm 5 m/s 752 mmHg 50%
09:00 -3°C° 0 mm 6 m/s 751 mmHg 45%
10:00 -2°C° 0 mm 6 m/s 751 mmHg 39%
11:00 -1°C° 0 mm 6 m/s 750 mmHg 38%
12:00 +1°C° 0 mm 6 m/s 750 mmHg 37%
13:00 +2°C° 0 mm 7 m/s 749 mmHg 37%
14:00 +2°C° 0 mm 6 m/s 748 mmHg 41%
15:00 +2°C° 0 mm 6 m/s 748 mmHg 46%
16:00 +2°C° 0 mm 6 m/s 747 mmHg 51%
17:00 +1°C° 0 mm 6 m/s 746 mmHg 54%
18:00 +1°C° 0 mm 6 m/s 745 mmHg 58%
19:00 -1°C° 0 mm 7 m/s 744 mmHg 61%
20:00 -1°C° 0 mm 7 m/s 743 mmHg 63%
21:00 0°C° 0 mm 7 m/s 743 mmHg 65%
22:00 0°C° 0 mm 8 m/s 742 mmHg 67%
23:00 0°C° 0 mm 8 m/s 741 mmHg 68%
Arată mai mult

Formular de consimțământ

Meteoprog și furnizorii noștri de servicii pot stoca și accesa date personale, precum cookies, identificatori de dispozitiv sau alte tehnologii similare pe dispozitivul dumneavoastră și procesa astfel de date pentru a personaliza conținutul și reclamele, dar și pentru a oferi caracteristici de social media și pentru a analiza traficul.

  • Stocarea și/sau accesarea informațiilor pe dispozitivul dumneavoastră

    Cookies, identificatori de dispozitiv sau alte informații pot fi stocate sau accesate pe dispozitiv în scopurile indicate mai sus.

  • Reclame și conținut personalizat, evaluarea reclamelor și a conținutului, informații despre audiențe și dezvoltarea produselor

    Reclamele și conținutul pot fi personalizate pe baza unui profil. Pot fi adăugate date suplimentare pentru a personaliza mai bine reclamele și conținutul. Performanța reclamelor și conținutului poate fi măsurată. Pot fi obținute informații despre utilizatorii care au văzut reclamele și conținutul. Aceste date pot fi utilizate pentru a dezvolta sau îmbunătăți experiența utilizatorilor, sistemele și software-ul.

Dând clic pe ‘Sunt de acord’, permiteți utilizarea cookie-urilor menționate, a identificatorilor de dispozitiv, balizelor web sau altor tehnologii similare. Setările pot fi modificate din browser-ul dispozitivului dumneavoastră.

În anumite scopuri, interesele legitime pot prima asupra consimțământului. Puteți citi mai multe informații în acest sens în Politica privind Confidențialitatea Datelor și Cookie.